This is the latest recevied weather packets stored in our database for station/object KE8WAY. If no packets are shown the sender has not sent any weather packets the latest 1 day(s).
| Time | Temp. | Humidity | Pressure | Rain* | Wind** | Luminosity | Snow |
|---|---|---|---|---|---|---|---|
| 1778056040 | 7.78° C | 91% | 1008.3 hPa | 1.78 mm | - | 0 W/m² | - |
| 1778055735 | 7.78° C | 92% | 1008.1 hPa | 1.78 mm | - | 0 W/m² | - |
| 1778055433 | 7.78° C | 91% | 1008.1 hPa | 0 mm | - | 0 W/m² | - |
| 1778055130 | 7.78° C | 91% | 1007.9 hPa | 0 mm | - | 0 W/m² | - |
| 1778053912 | 7.78° C | 91% | 1007.8 hPa | 0 mm | - | 0 W/m² | - |
| 1778053611 | 7.78° C | 91% | 1007.9 hPa | 0 mm | - | 0 W/m² | - |
| 1778052399 | 7.78° C | 89% | 1008.4 hPa | 1.27 mm | - | 0 W/m² | - |
| 1778052097 | 7.78° C | 88% | 1008.7 hPa | 1.27 mm | - | 0 W/m² | - |
| 1778051492 | 7.78° C | 85% | 1008.3 hPa | 0 mm | - | 0 W/m² | - |
| 1778050584 | 7.78° C | 91% | 1008.1 hPa | 1.78 mm | - | 0 W/m² | - |
| 1778049977 | 7.78° C | 90% | 1008 hPa | 1.78 mm | - | 0 W/m² | - |
| 1778049371 | 7.78° C | 89% | 1008.2 hPa | 0 mm | - | 0 W/m² | - |
| 1778049068 | 7.78° C | 87% | 1008.3 hPa | 1.27 mm | - | 0 W/m² | - |
| 1778048463 | 8.33° C | 88% | 1008.4 hPa | 0 mm | - | 0 W/m² | - |
| 1778047555 | 7.78° C | 92% | 1008.1 hPa | 0 mm | - | 0 W/m² | - |
| 1778046949 | 7.78° C | 90% | 1008.1 hPa | 1.78 mm | - | 0 W/m² | - |
| 1778046342 | 7.78° C | 90% | 1008.3 hPa | 0 mm | - | 0 W/m² | - |
| 1778046038 | 8.33° C | 91% | 1008.4 hPa | 0 mm | - | 0 W/m² | - |
| 1778044830 | 8.33° C | 88% | 1008.9 hPa | 0 mm | - | 0 W/m² | - |
| 1778043619 | 8.33° C | 91% | 1008.5 hPa | 0 mm | - | 0 W/m² | - |
| 1778043315 | 8.33° C | 91% | 1008.7 hPa | 0 mm | - | 0 W/m² | - |
| 1778043012 | 8.33° C | 90% | 1008.3 hPa | 0 mm | - | 0 W/m² | - |
| 1778042710 | 8.33° C | 90% | 1008.3 hPa | 1.78 mm | - | 0 W/m² | - |
| 1778041501 | 8.89° C | 92% | 1008.3 hPa | 0 mm | - | 0 W/m² | - |
| 1778041198 | 8.89° C | 92% | 1008.5 hPa | 1.27 mm | - | 0 W/m² | - |
* Rain latest hour (hover to see other rain measurements)
** Current wind speed in m/s (hover to see current wind gust speed)